Regional Weather Roundup
Issued by NWS

Home | Current Version | Previous Version | Graphics & Text | Print | Product List | Glossary On
Versions: 1 2 3 4 5 6 7 8 9 10 11 12 13 14 15 16 17 18 19 20 21 22 23 24 25 26 27 28 29 30 31 32 33 34 35 36 37 38 39 40 41 42 43 44 45 46 47 48 49 50
000
ASUS43 KLMK 281610
RWRKY
KENTUCKY REGIONAL WEATHER ROUNDUP
NATIONAL WEATHER SERVICE LOUISVILLE KY
1200 PM EDT THU JUL 28 2016

NOTE "FAIR" INDICATES FEW OR NO CLOUDS BELOW 12,000 FEET
WITH NO SIGNIFICANT WEATHER AND/OR OBSTRUCTIONS TO VISIBILITY.

KYZ001>023-026-027-061>063-070>075-281700-
WESTERN AND SOUTH CENTRAL KENTUCKY

CITY           SKY/WX    TMP DP  RH WIND       PRES   REMARKS
PADUCAH        CLOUDY    80  74  81 W5        29.92S
HENDERSON      CLOUDY    79  72  78 SW6       29.91
OWENSBORO      CLOUDY    79  74  84 SW7       29.93S
HOPKINSVILLE   CLOUDY    75  72  88 N5        29.93S
BOWLING GREEN  RAIN      74  72  93 NE5       29.94S FOG
GLASGOW        CLOUDY    73  73 100 CALM      29.95R
$$

KYZ024-025-028>034-038-045-046-053-281700-
NORTH CENTRAL KENTUCKY

CITY           SKY/WX    TMP DP  RH WIND       PRES   REMARKS
LOUISVILLE/SDF CLOUDY    78  71  79 W8        29.92S
LOUISVILLE/LOU CLOUDY    77  71  82 W6        29.93R
FORT KNOX      CLOUDY    76  71  82 W5        29.93R
$$

KYZ035>037-039>044-047>052-055>060-089>105-281700-
NORTHEAST KENTUCKY

CITY           SKY/WX    TMP DP  RH WIND       PRES   REMARKS
LEXINGTON      CLOUDY    74  71  91 W6        29.94R
COVINGTON      CLOUDY    73  71  93 S3        29.93S
FRANKFORT      CLOUDY    74  70  87 SW8       29.93R
$$

KYZ054-064>069-076>088-106>120-281700-
SOUTHEAST KENTUCKY

CITY           SKY/WX    TMP DP  RH WIND       PRES   REMARKS
JACKSON        CLOUDY    79  72  79 VRB3      29.95S
LONDON         HVY RAIN  76  70  82 W14       29.96S
SOMERSET       RAIN      70  70 100 N3        29.97R
MIDDLESBORO    CLOUDY    80  71  75 S9        29.97S
MONTICELLO     CLOUDY   N/A N/A N/A N14G23    29.97R
$$





USA.gov is the U.S. government's official web portal to all federal, state and local government web resources and services.